Naples, FL

7:31 AM EDT on March 30, 2017 (GMT -0400)
Naples Municipal

Weather History for KAPF - March, 2012

Change the Weather History Date:

Saturday, March 31, 2012

  Actual Average Record
Temperature  
Mean Temperature 74 °F 71 °F  
Max Temperature 83 °F 81 °F 91 °F (2008)
Min Temperature 65 °F 61 °F 39 °F (1971)
Degree Days  
Heating Degree Days 0 0  
Month to date heating degree days 2 19  
Since 1 July heating degree days 121 256  
Cooling Degree Days 9 7  
Month to date cooling degree days 268 176  
Year to date cooling degree days 542 367  
Growing Degree Days 24 (Base 50)    
Moisture  
Dew Point 69 °F    
Average Humidity 80    
Maximum Humidity 94    
Minimum Humidity 65    
Precipitation  
Precipitation 0.00 in 0.10 in 1.42 in (1983)
Month to date precipitation 1.00 2.38  
Year to date precipitation 4.38 6.33  
Snow  
Snow 0.00 in - - ()
Month to date snowfall 0.0  
Since 1 July snowfall 0.0  
Snow Depth 0.00 in    
Sea Level Pressure  
Sea Level Pressure 29.96 in    
Wind  
Wind Speed 8 mph (SW)    
Max Wind Speed 18 mph    
Max Gust Speed 23 mph    
Visibility 9 miles    
Events      
T = Trace of Precipitation, MM = Missing Value Source: NWS Daily Summary

Daily Weather History Graph

Daily Weather History Graph

Search for Another Location

Airport or City:

Trip Planner

Search our weather history database for the weather conditions in past years. The results will help you decide how hot, cold, wet, or windy it might be!

Date:

Astronomy

Mar. 31, 2012 Rise Set
Actual Time 7:18 AM EDT 7:43 PM EDT
Civil Twilight 6:55 AM EDT 8:06 PM EDT
Nautical Twilight 6:28 AM EDT 8:34 PM EDT
Astronomical Twilight 6:01 AM EDT 9:01 PM EDT
Moon 1:45 PM EDT (3/31) 2:38 AM EDT (3/31)
Length of Visible Light 13h 11m
Length of Day
12h 25m
First Quarter, 59% of the Moon is Illuminated
Mar 31
First Quarter
Apr 6
Full
Apr 13
Last Quarter
Apr 21
New
Apr 29
First Quarter

Hourly Weather History & Observations

Time (EDT) Temp. Heat Index Dew Point Humidity Pressure Visibility Wind Dir Wind Speed Gust Speed Precip Events Conditions
12:53 AM 69.1 °F - 63.0 °F 81% 30.01 in 10.0 mi ESE 4.6 mph - N/A   Clear
1:53 AM 68.0 °F - 62.1 °F 81% 30.00 in 10.0 mi SE 5.8 mph - N/A   Clear
2:53 AM 68.0 °F - 62.1 °F 81% 30.00 in 10.0 mi SE 5.8 mph - N/A   Clear
3:53 AM 66.9 °F - 62.1 °F 84% 29.98 in 10.0 mi ESE 4.6 mph - N/A   Clear
4:53 AM 66.0 °F - 63.0 °F 90% 29.98 in 10.0 mi NE 3.5 mph - N/A   Clear
5:53 AM 66.0 °F - 63.0 °F 90% 29.98 in 10.0 mi Calm Calm - N/A   Partly Cloudy
6:53 AM 66.0 °F - 63.0 °F 90% 29.99 in 10.0 mi East 3.5 mph - N/A   Partly Cloudy
7:53 AM 66.9 °F - 64.0 °F 90% 30.01 in 10.0 mi East 3.5 mph - N/A   Scattered Clouds
8:53 AM 71.1 °F - 66.0 °F 84% 30.01 in 10.0 mi Calm Calm - N/A   Scattered Clouds
9:53 AM 77.0 °F - 69.1 °F 76% 30.01 in 10.0 mi SE 4.6 mph - N/A   Scattered Clouds
10:53 AM 80.1 °F 83.2 °F 70.0 °F 71% 30.01 in 10.0 mi South 11.5 mph - N/A   Mostly Cloudy
11:53 AM 81.0 °F 84.4 °F 70.0 °F 69% 30.01 in 10.0 mi SSW 16.1 mph - N/A   Mostly Cloudy
12:53 PM 82.0 °F 85.9 °F 70.0 °F 67% 30.00 in 10.0 mi SSW 15.0 mph - N/A   Scattered Clouds
1:53 PM 82.0 °F 86.3 °F 71.1 °F 69% 29.97 in 10.0 mi SSW 15.0 mph - N/A   Scattered Clouds
2:53 PM 80.1 °F 83.8 °F 72.0 °F 76% 29.96 in 9.0 mi SW 13.8 mph - N/A   Mostly Cloudy
3:53 PM 81.0 °F 85.2 °F 72.0 °F 74% 29.93 in 9.0 mi SW 17.3 mph - N/A   Mostly Cloudy
4:53 PM 80.1 °F 83.8 °F 72.0 °F 76% 29.91 in 9.0 mi SSW 13.8 mph - N/A   Mostly Cloudy
5:31 PM 80.6 °F 84.6 °F 71.6 °F 74% 29.92 in 9.0 mi SW 15.0 mph - N/A   Scattered Clouds
5:53 PM 79.0 °F - 72.0 °F 79% 29.92 in 8.0 mi WSW 12.7 mph - N/A   Scattered Clouds
6:53 PM 78.1 °F - 72.0 °F 81% 29.93 in 7.0 mi WSW 9.2 mph - N/A   Mostly Cloudy
7:53 PM 77.0 °F - 72.0 °F 84% 29.94 in 7.0 mi West 9.2 mph - N/A   Overcast
8:53 PM 77.0 °F - 73.0 °F 88% 29.94 in 8.0 mi West 8.1 mph - N/A   Overcast
9:02 PM 77.0 °F - 73.4 °F 89% 29.94 in 8.0 mi West 6.9 mph - N/A   Overcast
9:22 PM 75.2 °F - 73.4 °F 94% 29.94 in 7.0 mi West 6.9 mph - N/A   Overcast
9:49 PM 75.2 °F - 73.4 °F 94% 29.94 in 7.0 mi West 4.6 mph - N/A   Overcast
9:53 PM 75.9 °F - 73.0 °F 91% 29.94 in 7.0 mi West 3.5 mph - N/A   Overcast
10:46 PM 75.2 °F - 71.6 °F 89% 29.94 in 7.0 mi West 6.9 mph - N/A   Overcast
10:53 PM 75.9 °F - 72.0 °F 87% 29.94 in 7.0 mi West 8.1 mph - N/A   Overcast
11:01 PM 75.2 °F - 71.6 °F 89% 29.94 in 7.0 mi West 5.8 mph - N/A   Overcast
11:53 PM 75.0 °F - 72.0 °F 90% 29.94 in 7.0 mi West 5.8 mph - N/A   Mostly Cloudy